Hourly Weather Bolshie Zalomy

Today, 17 June, Thursday

Time Temperature Precipitation Wind Pressure Humidity
00:00 +13°C° 0 mm 3 mps 745 mmHg 76%
01:00 +13°C° 0 mm 3 mps 745 mmHg 76%
02:00 +12°C° 0 mm 3 mps 746 mmHg 76%
03:00 +12°C° 0 mm 3 mps 746 mmHg 77%
04:00 +12°C° 0 mm 3 mps 746 mmHg 79%
05:00 +13°C° 0 mm 3 mps 747 mmHg 80%
06:00 +13°C° 0 mm 3 mps 747 mmHg 81%
07:00 +16°C° 0 mm 3 mps 747 mmHg 76%
08:00 +17°C° 0 mm 3 mps 748 mmHg 71%
09:00 +19°C° 0 mm 3 mps 748 mmHg 66%
10:00 +20°C° 0 mm 3 mps 748 mmHg 62%
11:00 +21°C° 0 mm 3 mps 749 mmHg 58%
12:00 +22°C° 0 mm 3 mps 749 mmHg 54%
13:00 +22°C° 0 mm 3 mps 749 mmHg 55%
14:00 +22°C° 0 mm 3 mps 749 mmHg 55%
15:00 +24°C° 0 mm 3 mps 749 mmHg 55%
16:00 +22°C° 0 mm 3 mps 749 mmHg 60%
17:00 +22°C° 0 mm 3 mps 749 mmHg 64%
18:00 +22°C° 0 mm 3 mps 749 mmHg 69%
19:00 +20°C° 0 mm 3 mps 749 mmHg 73%
20:00 +19°C° 0 mm 3 mps 750 mmHg 77%
21:00 +17°C° 0 mm 3 mps 750 mmHg 80%
22:00 +16°C° 0 mm 3 mps 750 mmHg 79%
23:00 +14°C° 0 mm 3 mps 751 mmHg 78%

Tomorrow, 18 June, Friday

Time Temperature Precipitation Wind Pressure Humidity
00:00 +14°C° 0 mm 2 mps 751 mmHg 76%
01:00 +14°C° 0 mm 2 mps 751 mmHg 77%
02:00 +13°C° 0 mm 2 mps 751 mmHg 78%
03:00 +13°C° 0 mm 2 mps 751 mmHg 79%
04:00 +14°C° 0 mm 2 mps 752 mmHg 80%
05:00 +15°C° 0 mm 1 mps 752 mmHg 80%
06:00 +15°C° 0 mm 1 mps 752 mmHg 81%
07:00 +17°C° 0 mm 2 mps 752 mmHg 76%
08:00 +18°C° 0 mm 2 mps 752 mmHg 72%
09:00 +20°C° 0 mm 2 mps 753 mmHg 68%
10:00 +21°C° 0 mm 2 mps 753 mmHg 64%
11:00 +21°C° 0 mm 2 mps 753 mmHg 61%
12:00 +22°C° 0 mm 3 mps 753 mmHg 58%
13:00 +24°C° 0 mm 2 mps 752 mmHg 58%
14:00 +24°C° 0 mm 2 mps 752 mmHg 57%
15:00 +24°C° 0 mm 2 mps 752 mmHg 57%
16:00 +24°C° 0 mm 2 mps 752 mmHg 60%
17:00 +24°C° 0 mm 2 mps 752 mmHg 64%
18:00 +24°C° 0 mm 2 mps 752 mmHg 67%
19:00 +21°C° 0 mm 2 mps 752 mmHg 72%
20:00 +19°C° 0 mm 2 mps 752 mmHg 77%
21:00 +17°C° 0 mm 2 mps 752 mmHg 81%
22:00 +17°C° 0 mm 2 mps 752 mmHg 83%
23:00 +16°C° 0 mm 1 mps 752 mmHg 84%

Day after tomorrow, 19 June, Saturday

Time Temperature Precipitation Wind Pressure Humidity
00:00 +15°C° 0 mm 1 mps 752 mmHg 86%
01:00 +15°C° 0 mm 1 mps 752 mmHg 86%
02:00 +15°C° 0 mm 1 mps 752 mmHg 86%
03:00 +14°C° 0 mm 1 mps 752 mmHg 86%
04:00 +15°C° 0 mm 1 mps 752 mmHg 85%
05:00 +16°C° 0 mm 1 mps 752 mmHg 84%
06:00 +16°C° 0 mm 1 mps 753 mmHg 84%
07:00 +19°C° 0 mm 1 mps 753 mmHg 79%
08:00 +20°C° 0 mm 1 mps 752 mmHg 75%
09:00 +21°C° 0 mm 2 mps 752 mmHg 71%
10:00 +23°C° 0 mm 2 mps 752 mmHg 68%
11:00 +23°C° 0 mm 2 mps 752 mmHg 66%
12:00 +24°C° 0 mm 2 mps 752 mmHg 63%
13:00 +25°C° 0 mm 2 mps 752 mmHg 61%
14:00 +25°C° 0 mm 2 mps 751 mmHg 59%
15:00 +25°C° 0 mm 2 mps 751 mmHg 57%
16:00 +25°C° 0 mm 2 mps 751 mmHg 60%
17:00 +25°C° 0 mm 2 mps 751 mmHg 64%
18:00 +25°C° 0 mm 2 mps 750 mmHg 67%
19:00 +23°C° 0 mm 2 mps 750 mmHg 71%
20:00 +20°C° 0 mm 2 mps 750 mmHg 76%
21:00 +18°C° 0 mm 2 mps 750 mmHg 81%
22:00 +17°C° 0 mm 2 mps 750 mmHg 83%
23:00 +17°C° 0 mm 2 mps 750 mmHg 84%

20 June, Sunday

Time Temperature Precipitation Wind Pressure Humidity
00:00 +16°C° 0 mm 2 mps 750 mmHg 86%
01:00 +16°C° 0 mm 1 mps 750 mmHg 87%
02:00 +15°C° 0 mm 1 mps 750 mmHg 87%
03:00 +15°C° 0 mm 1 mps 751 mmHg 87%
04:00 +15°C° 0 mm 1 mps 751 mmHg 86%
05:00 +16°C° 0 mm 1 mps 751 mmHg 85%
06:00 +18°C° 0 mm 1 mps 751 mmHg 83%
07:00 +19°C° 0 mm 1 mps 750 mmHg 79%
08:00 +21°C° 0 mm 1 mps 750 mmHg 74%
09:00 +21°C° 0 mm 2 mps 750 mmHg 70%
10:00 +23°C° 0 mm 2 mps 750 mmHg 66%
11:00 +24°C° 0 mm 2 mps 750 mmHg 62%
12:00 +25°C° 0 mm 2 mps 750 mmHg 59%
13:00 +26°C° 0 mm 2 mps 750 mmHg 57%
14:00 +26°C° 0 mm 2 mps 749 mmHg 56%
15:00 +27°C° 0 mm 2 mps 749 mmHg 55%
16:00 +27°C° 0 mm 2 mps 749 mmHg 58%
17:00 +26°C° 0 mm 1 mps 749 mmHg 61%
18:00 +26°C° 0 mm 1 mps 749 mmHg 64%
19:00 +25°C° 0 mm 1 mps 748 mmHg 69%
20:00 +23°C° 0 mm 1 mps 748 mmHg 75%
21:00 +21°C° 0 mm 1 mps 748 mmHg 80%
22:00 +20°C° 0 mm 1 mps 748 mmHg 82%
23:00 +19°C° 0 mm 2 mps 748 mmHg 84%

21 June, Monday

Time Temperature Precipitation Wind Pressure Humidity
00:00 +18°C° 0 mm 2 mps 748 mmHg 86%
01:00 +19°C° 0 mm 1 mps 748 mmHg 86%
02:00 +18°C° 0 mm 1 mps 748 mmHg 87%
03:00 +18°C° 0 mm 1 mps 748 mmHg 87%
04:00 +19°C° 0 mm 1 mps 748 mmHg 86%
05:00 +19°C° 0 mm 1 mps 748 mmHg 85%
06:00 +20°C° 0 mm 1 mps 748 mmHg 84%
07:00 +22°C° 0 mm 1 mps 748 mmHg 80%
08:00 +23°C° 0 mm 2 mps 748 mmHg 76%
09:00 +24°C° 0 mm 2 mps 748 mmHg 72%
10:00 +25°C° 0 mm 2 mps 748 mmHg 69%
11:00 +26°C° 0 mm 2 mps 748 mmHg 66%
12:00 +27°C° 0 mm 2 mps 748 mmHg 63%
13:00 +27°C° 0 mm 2 mps 748 mmHg 63%
14:00 +28°C° 0 mm 2 mps 748 mmHg 62%
15:00 +28°C° 0 mm 2 mps 747 mmHg 61%
16:00 +28°C° 0 mm 2 mps 747 mmHg 64%
17:00 +28°C° 0 mm 2 mps 747 mmHg 67%
18:00 +28°C° 0 mm 2 mps 747 mmHg 70%
19:00 +26°C° 0 mm 2 mps 747 mmHg 75%
20:00 +24°C° 0 mm 2 mps 747 mmHg 80%
21:00 +23°C° 0 mm 2 mps 747 mmHg 85%
22:00 +21°C° 0 mm 2 mps 747 mmHg 87%
23:00 +20°C° 0 mm 2 mps 747 mmHg 88%

22 June, Tuesday

Time Temperature Precipitation Wind Pressure Humidity
00:00 +20°C° 0 mm 2 mps 747 mmHg 89%
01:00 +19°C° 0 mm 2 mps 747 mmHg 89%
02:00 +19°C° 0 mm 2 mps 747 mmHg 90%
03:00 +20°C° 0 mm 1 mps 747 mmHg 90%
04:00 +20°C° 0 mm 1 mps 747 mmHg 89%
05:00 +21°C° 0 mm 1 mps 747 mmHg 89%
06:00 +20°C° 0 mm 2 mps 747 mmHg 88%
07:00 +23°C° 0 mm 2 mps 748 mmHg 83%
08:00 +24°C° 0 mm 2 mps 748 mmHg 79%
09:00 +26°C° 0 mm 2 mps 748 mmHg 74%
10:00 +27°C° 0 mm 2 mps 748 mmHg 71%
11:00 +28°C° 0 mm 2 mps 748 mmHg 67%
12:00 +29°C° 0 mm 2 mps 748 mmHg 64%
13:00 +29°C° 0 mm 2 mps 748 mmHg 62%
14:00 +29°C° 0 mm 2 mps 748 mmHg 60%
15:00 +30°C° 0 mm 1 mps 748 mmHg 58%
16:00 +30°C° 0 mm 1 mps 747 mmHg 61%
17:00 +29°C° 0 mm 1 mps 747 mmHg 65%
18:00 +29°C° 0 mm 1 mps 747 mmHg 68%
19:00 +28°C° 0 mm 1 mps 747 mmHg 72%
20:00 +26°C° 0 mm 1 mps 747 mmHg 77%
21:00 +24°C° 0 mm 1 mps 747 mmHg 82%
22:00 +23°C° 0 mm 1 mps 747 mmHg 83%
23:00 +23°C° 0 mm 1 mps 747 mmHg 85%
Show more